[[{"header":{"parameterUnit":"m.s-1","parameterCategory":1,"la1":30.2991,"la2":30.254,"lo1":-89.0895,"lo2":-89.0444,"dy":0.0017,"dx":0.0017,"nx":28,"ny":28,"refTime":"2025-12-25T09:00:00:Z","depth":0,"parameterNumber":2,"parameterNumberName":"U-component_of_WINDS"},"data":[0,0,0,0,0,0,0,0,0,0,0,0,0,0,0,0,0,0,0,0,0,0,0,0,0,0,0,0,0,0,0,0,0,0,0,0,0,0,0,0,0,0,0,0,0,0,0,0,0,0,0,0,0,0,0,0,0,0,0.4772,0.4772,0,0.4809,0.481,0.481,0.4874,0.4875,0.4876,0.4878,0.4915,0.4915,0.4914,0,0,0,0,0,0,0,0,0,0,0,0,0,0.4756,0.4756,0.4772,0.4772,0.4773,0.4809,0.481,0.481,0.4874,0.4875,0.4877,0.4878,0.4915,0.4915,0.4914,0,0,0,0,0,0,0,0,0,0,0,0,0,0.4775,0.4756,0.4772,0.4809,0.4813,0.4809,0.481,0.481,0.4874,0.4875,0.4877,0.4879,0.4915,0.4915,0.4914,0.4877,0,0,0.4914,0.4914,0,0,0,0,0,0,0,0,0.4774,0.4775,0.4803,0.4807,0.4811,0.4839,0.4818,0.4833,0.4873,0.485,0.4878,0.488,0.4888,0.489,0.4893,0.4879,0.488,0.4914,0.4914,0.4914,0.4914,0,0,0,0,0,0,0,0.4772,0.4774,0.4787,0.4803,0.4808,0.4824,0.4829,0.4821,0.4859,0.4853,0.4857,0.4861,0.489,0.4893,0.4894,0.4881,0.4914,0.4914,0.4913,0.4913,0.4839,0.4838,0,0,0,0,0,0,0.4766,0.4773,0.4786,0.4788,0.4796,0.4823,0.4828,0.4828,0.4859,0.4865,0.4859,0.4864,0.4893,0.4895,0.4896,0.4855,0.4914,0.4913,0.4913,0.4841,0.4839,0.4837,0,0,0,0,0,0,0.4765,0.4766,0.4784,0.4782,0.4785,0.4821,0.4821,0.4828,0.4831,0.4864,0.4871,0.4855,0.4894,0.4896,0.4882,0.4857,0.4913,0.4913,0.4843,0.484,0.4838,0.4773,0,0,0,0,0,0,0.4764,0.4766,0.4752,0.4781,0.4785,0.4769,0.4819,0.4827,0.483,0.4836,0.4862,0.4868,0.4896,0.4882,0.4881,0.4858,0.4913,0.4846,0.4842,0.4839,0.4777,0.4768,0.476,0,0,0,0,0,0.4763,0.4732,0.4751,0.4752,0.4768,0.4767,0.477,0.4803,0.4828,0.4815,0.4836,0.4867,0.486,0.488,0.488,0.4856,0.4847,0.4843,0.4839,0.4781,0.477,0.4761,0,0,0,0,0,0,0.4698,0.4736,0.4758,0.4734,0.4747,0.4778,0.4762,0.479,0.4795,0.4801,0.4841,0.4846,0.4827,0.484,0.4861,0.4822,0.4859,0.4854,0.4814,0.4804,0.4796,0.4793,0.4913,0,0,0,0,0,0.4681,0.4677,0.4711,0.4687,0.4692,0.4726,0.4727,0.4751,0.4766,0.4771,0.4792,0.4805,0.4806,0.4806,0.4808,0.478,0.4787,0.4763,0.4755,0.4748,0.4744,0.4731,0.4721,0.4823,0.4823,0.4823,0,0,0.4646,0.4666,0.4661,0.4674,0.4687,0.4682,0.473,0.4723,0.472,0.477,0.4758,0.4774,0.4791,0.4769,0.4761,0.478,0.4717,0.4743,0.4737,0.4737,0.4726,0.4716,0.4707,0.482,0.4821,0.4821,0,0,0.4579,0.4594,0.4576,0.4588,0.4607,0.463,0.4626,0.4653,0.4665,0.4654,0.4692,0.4689,0.4689,0.47,0.4706,0.4644,0.4673,0.4644,0.46,0.4587,0.4579,0.4572,0.4551,0.4542,0.464,0.4639,0.4639,0,0.4533,0.4527,0.4563,0.4554,0.4559,0.4605,0.4587,0.4597,0.4616,0.4618,0.4639,0.4642,0.4656,0.4639,0.4624,0.4626,0.4623,0.4641,0.4577,0.457,0.4564,0.4545,0.4537,0.4636,0.4636,0.4637,0.4637,0,0.447,0.4465,0.4449,0.4466,0.4469,0.4456,0.449,0.4488,0.4512,0.4533,0.4521,0.454,0.4548,0.4546,0.4569,0.4531,0.4543,0.4569,0.4607,0.455,0.4533,0.4525,0.4631,0.4632,0.4633,0.4634,0,0,0.4363,0.4401,0.4395,0.4404,0.4428,0.4426,0.4414,0.4423,0.4421,0.4432,0.4424,0.4424,0.4449,0.4456,0.4481,0.4469,0.442,0.4497,0.4498,0.4483,0.4381,0.4362,0.4352,0.4439,0.4438,0.4437,0.438,0,0.4302,0.4286,0.4318,0.4293,0.429,0.4334,0.4325,0.4339,0.4358,0.4358,0.4379,0.4378,0.4411,0.4416,0.4406,0.4428,0.44,0.4432,0.4433,0.4432,0.4428,0.4343,0.4322,0.4267,0.4373,0.4372,0.4371,0,0.4229,0.4238,0.4213,0.424,0.424,0.4231,0.4242,0.4241,0.4258,0.4273,0.428,0.431,0.4301,0.4336,0.4325,0.4346,0.4348,0.4359,0.4358,0.436,0.4399,0.4343,0.4251,0.4243,0.4361,0.4361,0.4362,0,0.4155,0.416,0.4147,0.4153,0.4184,0.4176,0.4189,0.4208,0.4211,0.422,0.4223,0.423,0.4235,0.424,0.4271,0.4294,0.4256,0.4294,0.4269,0.4268,0.426,0.426,0.4167,0.4259,0.4259,0.426,0.426,0,0.4084,0.4068,0.4114,0.4105,0.4088,0.4125,0.4108,0.4125,0.4141,0.4137,0.4175,0.417,0.4211,0.4211,0.4235,0.4223,0.4224,0.4236,0.4243,0.4233,0.4232,0.4236,0.4241,0.4257,0.4258,0.4258,0.4259,0,0.3999,0.4029,0.4017,0.4048,0.4055,0.4041,0.4067,0.4061,0.4083,0.4077,0.4078,0.4112,0.4114,0.4145,0.4153,0.4169,0.4148,0.4161,0.4142,0.4147,0.412,0.4123,0.4027,0.4017,0.4115,0.4114,0.4113,0,0.3952,0.3941,0.397,0.397,0.3981,0.3981,0.3984,0.402,0.4023,0.4042,0.4033,0.4038,0.4045,0.4046,0.4071,0.4078,0.4092,0.4059,0.4094,0.4085,0.4093,0.4094,0.4094,0.4051,0.405,0.4049,0.4048,0,0.3866,0.3882,0.3886,0.3895,0.3898,0.3907,0.3918,0.3916,0.3956,0.3957,0.3959,0.3964,0.3973,0.3978,0.399,0.4003,0.4032,0.4037,0.4032,0.4022,0.4012,0.4018,0.4123,0.4039,0.404,0.4041,0.4041,0.4041,0.38,0.3792,0.3812,0.3815,0.3827,0.3837,0.3833,0.3854,0.3857,0.3868,0.3889,0.3888,0.3907,0.3926,0.3936,0.3937,0.3954,0.3946,0.3945,0.3942,0.3937,0.4011,0.3939,0.3939,0.394,0.394,0.394,0,0.3717,0.3732,0.3734,0.3749,0.3752,0.3779,0.3793,0.3794,0.3793,0.3808,0.3813,0.3817,0.3822,0.3848,0.3856,0.3852,0.3865,0.3853,0.3854,0.3857,0.3921,0.3925,0.3841,0.3841,0.3841,0.3841,0.3842,0.3842,0.3674,0.3662,0.368,0.3676,0.3691,0.3691,0.3697,0.3706,0.3719,0.3721,0.3726,0.3743,0.3762,0.3772,0.3778,0.3786,0.3788,0.3771,0.3783,0.3842,0.3852,0.3861,0.3865,0.377,0.377,0.3719,0.3718,0.3718]},{"header":{"parameterUnit":"m.s-1","parameterCategory":1,"la1":30.2991,"la2":30.254,"lo1":-89.0895,"lo2":-89.0444,"dy":0.0017,"dx":0.0017,"nx":28,"ny":28,"refTime":"2025-12-25T09:00:00:Z","depth":0,"parameterNumber":3,"parameterNumberName":"V-component_of_WINDS"},"data":[0,0,0,0,0,0,0,0,0,0,0,0,0,0,0,0,0,0,0,0,0,0,0,0,0,0,0,0,0,0,0,0,0,0,0,0,0,0,0,0,0,0,0,0,0,0,0,0,0,0,0,0,0,0,0,0,0,0,2.352,2.3519,0,2.3447,2.3447,2.3446,2.3435,2.3435,2.3436,2.3436,2.3358,2.3355,2.3352,0,0,0,0,0,0,0,0,0,0,0,0,0,2.3647,2.3645,2.352,2.3519,2.3518,2.3448,2.3447,2.3446,2.3434,2.3435,2.3436,2.3437,2.3359,2.3355,2.3352,0,0,0,0,0,0,0,0,0,0,0,0,0,2.3585,2.3644,2.352,2.3504,2.3502,2.3448,2.3447,2.3445,2.3434,2.3435,2.3436,2.3437,2.336,2.3356,2.3352,2.3307,0,0,2.3339,2.3337,0,0,0,0,0,0,0,0,2.3588,2.358,2.3508,2.3505,2.3503,2.3451,2.3462,2.3399,2.3434,2.346,2.3437,2.3438,2.3388,2.3381,2.3365,2.3303,2.33,2.3339,2.3336,2.3335,2.3333,0,0,0,0,0,0,0,2.3593,2.3583,2.3491,2.3507,2.3504,2.35,2.3492,2.345,2.3419,2.3458,2.3457,2.3449,2.3387,2.3369,2.3363,2.3298,2.3339,2.3335,2.3333,2.3331,2.3197,2.3196,0,0,0,0,0,0,2.36,2.3587,2.3494,2.3489,2.3549,2.3497,2.3488,2.3467,2.3419,2.3413,2.3448,2.3448,2.3376,2.3368,2.3361,2.3306,2.3335,2.3331,2.3328,2.3198,2.3197,2.3196,0,0,0,0,0,0,2.3603,2.3592,2.3497,2.3538,2.3525,2.3494,2.347,2.3465,2.3448,2.3412,2.3406,2.3436,2.3376,2.3366,2.3321,2.3303,2.3329,2.3325,2.32,2.3198,2.3197,2.3196,0,0,0,0,0,0,2.3607,2.3593,2.3576,2.3538,2.3523,2.3459,2.3468,2.3463,2.3441,2.3441,2.3399,2.3393,2.3376,2.3327,2.3317,2.3298,2.3322,2.3201,2.3199,2.3197,2.3197,2.3194,2.3192,0,0,0,0,0,2.3611,2.3577,2.3575,2.3564,2.3501,2.3458,2.3449,2.3432,2.344,2.3422,2.34,2.3395,2.3307,2.3323,2.3311,2.329,2.3202,2.32,2.3197,2.3198,2.3195,2.3192,0,0,0,0,0,0,2.3612,2.3572,2.3569,2.3522,2.3494,2.3456,2.3433,2.3428,2.3395,2.3397,2.3375,2.3365,2.3321,2.3301,2.3319,2.3246,2.3255,2.325,2.326,2.3256,2.3254,2.3259,2.3319,0,0,0,0,0,2.3608,2.3577,2.3542,2.3504,2.349,2.3464,2.3444,2.3434,2.3403,2.339,2.3364,2.3333,2.3299,2.3277,2.3243,2.3195,2.3186,2.3175,2.3172,2.317,2.3166,2.3141,2.3136,2.3188,2.3188,2.3188,0,0,2.3596,2.3571,2.3552,2.3504,2.348,2.3448,2.3454,2.3419,2.3395,2.3384,2.334,2.3321,2.3285,2.3238,2.3217,2.322,2.315,2.3167,2.3166,2.3162,2.3137,2.3133,2.3128,2.3186,2.3186,2.3187,0,0,2.356,2.3537,2.3504,2.3481,2.3447,2.343,2.3422,2.3386,2.3373,2.3329,2.3321,2.3291,2.3232,2.3208,2.3187,2.3145,2.3139,2.3134,2.312,2.3095,2.3091,2.3087,2.3073,2.3068,2.313,2.313,2.313,0,2.355,2.3502,2.3486,2.3453,2.3432,2.3424,2.3389,2.3368,2.3323,2.3309,2.3314,2.3242,2.3217,2.3165,2.3155,2.3139,2.3129,2.3138,2.3093,2.3089,2.3085,2.3071,2.3066,2.313,2.313,2.313,2.313,0,2.3492,2.3459,2.3436,2.3396,2.3373,2.3339,2.3318,2.3296,2.3288,2.3271,2.3227,2.3197,2.3158,2.3145,2.3136,2.3093,2.3096,2.3098,2.3107,2.308,2.3067,2.3061,2.3129,2.313,2.313,2.313,0,0,2.3452,2.3406,2.3398,2.338,2.3343,2.3317,2.3283,2.3247,2.3229,2.3199,2.3171,2.3122,2.3124,2.3101,2.3089,2.3068,2.3037,2.3072,2.3071,2.3067,2.2989,2.2988,2.2982,2.3034,2.3033,2.3032,2.2992,0,2.3411,2.3352,2.3338,2.3287,2.3257,2.325,2.322,2.3194,2.3178,2.3149,2.3131,2.3097,2.3102,2.3088,2.3067,2.3046,2.3021,2.3048,2.3006,2.3005,2.3015,2.2975,2.2973,2.2937,2.2987,2.2986,2.2985,0,2.3355,2.3327,2.3274,2.3243,2.323,2.3204,2.317,2.3143,2.3114,2.3103,2.308,2.3071,2.3035,2.3047,2.2998,2.3017,2.2999,2.2986,2.2984,2.2979,2.2993,2.2969,2.2925,2.292,2.2976,2.2977,2.2978,0,2.3332,2.3281,2.3243,2.3228,2.319,2.3173,2.3156,2.3128,2.3108,2.3078,2.3065,2.3031,2.3013,2.2987,2.2969,2.2979,2.2922,2.2932,2.2912,2.2912,2.2899,2.29,2.2852,2.2888,2.2888,2.2888,2.2888,0,2.3288,2.3256,2.3232,2.3209,2.3173,2.3157,2.3122,2.3105,2.308,2.3053,2.3044,2.3019,2.2997,2.2968,2.2954,2.2916,2.2908,2.2898,2.2895,2.2899,2.29,2.2886,2.2889,2.2887,2.2887,2.2887,2.2888,0,2.3256,2.3239,2.3197,2.3166,2.3158,2.3133,2.3106,2.3083,2.3067,2.3033,2.3024,2.2999,2.2966,2.2946,2.2902,2.2893,2.2851,2.2849,2.2862,2.286,2.2841,2.2844,2.2783,2.2774,2.2816,2.2815,2.2815,0,2.3229,2.3204,2.3172,2.3154,2.3138,2.3109,2.3089,2.3073,2.3053,2.3019,2.3,2.2966,2.2938,2.2885,2.2862,2.283,2.2827,2.2808,2.2821,2.2827,2.2827,2.2829,2.2827,2.2805,2.2805,2.2804,2.2804,0,2.3183,2.3176,2.3149,2.3119,2.3097,2.3072,2.3047,2.3033,2.3013,2.299,2.2957,2.2936,2.2893,2.286,2.2826,2.2808,2.2803,2.28,2.2794,2.2798,2.2807,2.2803,2.2855,2.2801,2.2802,2.2802,2.2802,2.2802,2.3152,2.3131,2.3106,2.3076,2.3056,2.3034,2.3012,2.2995,2.2967,2.2932,2.2925,2.289,2.2862,2.2817,2.2798,2.277,2.2773,2.2764,2.2762,2.276,2.276,2.2812,2.2764,2.2764,2.2764,2.2764,2.2764,0,2.3106,2.3091,2.3064,2.3031,2.3008,2.3007,2.298,2.2961,2.2931,2.2906,2.288,2.2843,2.2811,2.2787,2.2755,2.2738,2.2734,2.273,2.2731,2.2727,2.2758,2.2767,2.2733,2.2733,2.2733,2.2733,2.2733,2.2733,2.308,2.3044,2.3035,2.299,2.2974,2.2941,2.2926,2.2906,2.2887,2.2846,2.282,2.2806,2.2782,2.2748,2.272,2.2713,2.2702,2.2698,2.2691,2.2721,2.2724,2.2727,2.2736,2.2695,2.2695,2.2662,2.2661,2.2661]}]]